Location: Caltech
(34.1382°N, 118.1253°W)
Time: 02:05:29
(UTC-07:00)

ERBS - Visible Passes

Search period start: 26 March 2017 00:00
Search period end: 05 April 2017 00:00
Orbit: 432 x 442 km, 57.0° (Epoch: 24 March)

Date Brightness Start Highest point End Pass type
(mag) Time Alt. Az. Time Alt. Az. Time Alt. Az.
27 Mar 5.4 06:04:58 10° N 06:06:43 13° NE 06:08:29 10° ENE visible
30 Mar 4.6 05:36:22 10° NNW 05:39:24 27° NE 05:42:25 10° ESE visible
31 Mar 5.2 04:55:25 10° N 04:57:51 17° NE 05:00:16 10° E visible
01 Apr 5.6 04:14:55 10° NNE 04:16:14 12° NE 04:17:32 10° ENE visible
01 Apr 2.3 05:49:48 10° NW 05:53:15 63° SW 05:56:42 10° SSE visible
01 Apr 3.0 20:57:31 10° SW 21:00:07 48° SW 21:00:07 48° SW visible
02 Apr 2.6 05:09:11 16° NNW 05:11:50 69° NE 05:15:18 10° SE visible
02 Apr 2.3 20:16:11 10° SSW 20:19:32 55° SE 20:22:29 13° NE visible
02 Apr 5.7 21:54:58 10° WNW 21:55:58 12° NW 21:55:58 12° NW visible
03 Apr 4.0 04:31:03 34° ENE 04:31:03 34° ENE 04:33:38 10° ESE visible
03 Apr 4.2 06:05:01 10° W 06:06:44 13° WSW 06:08:27 10° SSW visible
03 Apr 5.1 21:12:23 10° W 21:14:53 19° NW 21:17:24 10° N visible
04 Apr 4.1 05:26:51 18° SSW 05:26:51 18° SSW 05:28:14 10° S visible
04 Apr 4.4 20:30:16 10° WSW 20:33:19 29° NW 20:36:23 10° NNE visible
